[Date Prev][Date Next][Thread Prev][Thread Next] - [Date Index][Thread Index][Author Index]

STS-121 LATEST KEPS



STS 121                 
1 29251U 06028A   06186.88567126  .00935466  12043-4  15077-3 0    79
2 29251  51.6295  91.2478 0074602   3.6387  37.9619 16.24692986   183
----
Via the sarex mailing list at AMSAT.ORG courtesy of AMSAT-NA.
To unsubscribe, send "unsubscribe sarex" to Majordomo@amsat.org



AMSAT Top AMSAT Home